• In Belgium
  • List of Countries
  • For 7 days
  • Water Temperature
  • Satellite Maps
  • Weather Map
  • Weather Widgets
  • user-avatar
    Login

    Hourly Weather Gold Coast

    Today, 25 June, Sunday

    Time Temperature Precipitation Wind Pressure Humidity
    00:00 +12°C° 0 mm 2 mps 760 mmHg 86%
    01:00 +12°C° 0 mm 1 mps 760 mmHg 86%
    02:00 +12°C° 0 mm 1 mps 760 mmHg 86%
    03:00 +12°C° 0 mm 1 mps 760 mmHg 86%
    04:00 +12°C° 0 mm 1 mps 760 mmHg 86%
    05:00 +12°C° 0 mm 1 mps 760 mmHg 86%
    06:00 +12°C° 0 mm 1 mps 760 mmHg 86%
    07:00 +12°C° 0 mm 1 mps 760 mmHg 86%
    08:00 +15°C° 0 mm 1 mps 760 mmHg 79%
    09:00 +19°C° 0 mm 1 mps 761 mmHg 71%
    10:00 +22°C° 0 mm 1 mps 761 mmHg 63%
    11:00 +22°C° 0 mm 1 mps 760 mmHg 60%
    12:00 +23°C° 0 mm 1 mps 760 mmHg 58%
    13:00 +24°C° 0 mm 2 mps 759 mmHg 55%
    14:00 +23°C° 0 mm 2 mps 759 mmHg 60%
    15:00 +21°C° 0 mm 2 mps 759 mmHg 65%
    16:00 +21°C° 0 mm 3 mps 759 mmHg 70%
    17:00 +19°C° 0 mm 3 mps 759 mmHg 76%
    18:00 +17°C° 0 mm 3 mps 760 mmHg 82%
    19:00 +16°C° 0 mm 3 mps 760 mmHg 88%
    20:00 +14°C° 0 mm 3 mps 760 mmHg 88%
    21:00 +14°C° 0 mm 3 mps 760 mmHg 89%
    22:00 +13°C° 0 mm 3 mps 761 mmHg 90%
    23:00 +13°C° 0.1 mm 3 mps 761 mmHg 90%

    Tomorrow, 26 June, Monday

    Time Temperature Precipitation Wind Pressure Humidity
    00:00 +12°C° 0.1 mm 3 mps 761 mmHg 89%
    01:00 +12°C° 0.1 mm 3 mps 761 mmHg 89%
    02:00 +12°C° 0.1 mm 3 mps 760 mmHg 89%
    03:00 +11°C° 0.1 mm 3 mps 760 mmHg 88%
    04:00 +11°C° 0.1 mm 3 mps 760 mmHg 88%
    05:00 +11°C° 0 mm 3 mps 760 mmHg 87%
    06:00 +12°C° 0 mm 2 mps 761 mmHg 87%
    07:00 +12°C° 0 mm 2 mps 761 mmHg 86%
    08:00 +15°C° 0 mm 2 mps 762 mmHg 77%
    09:00 +18°C° 0 mm 2 mps 762 mmHg 67%
    10:00 +21°C° 0 mm 2 mps 762 mmHg 58%
    11:00 +23°C° 0 mm 2 mps 762 mmHg 56%
    12:00 +24°C° 0 mm 2 mps 761 mmHg 53%
    13:00 +24°C° 0 mm 2 mps 761 mmHg 50%
    14:00 +24°C° 0 mm 2 mps 761 mmHg 56%
    15:00 +22°C° 0 mm 3 mps 761 mmHg 63%
    16:00 +21°C° 0 mm 3 mps 761 mmHg 69%
    17:00 +19°C° 0 mm 3 mps 761 mmHg 76%
    18:00 +17°C° 0 mm 3 mps 762 mmHg 83%
    19:00 +14°C° 0 mm 3 mps 762 mmHg 91%
    20:00 +14°C° 0 mm 3 mps 763 mmHg 90%
    21:00 +14°C° 0 mm 3 mps 763 mmHg 90%
    22:00 +14°C° 0 mm 3 mps 764 mmHg 90%
    23:00 +14°C° 0 mm 3 mps 764 mmHg 91%

    Day after tomorrow, 27 June, Tuesday

    Time Temperature Precipitation Wind Pressure Humidity
    00:00 +13°C° 0 mm 3 mps 763 mmHg 91%
    01:00 +13°C° 0 mm 3 mps 763 mmHg 92%
    02:00 +13°C° 0 mm 3 mps 763 mmHg 93%
    03:00 +13°C° 0 mm 4 mps 763 mmHg 94%
    04:00 +13°C° 0 mm 4 mps 763 mmHg 95%
    05:00 +13°C° 0 mm 4 mps 764 mmHg 95%
    06:00 +13°C° 0 mm 4 mps 764 mmHg 95%
    07:00 +13°C° 0 mm 4 mps 764 mmHg 95%
    08:00 +15°C° 0 mm 4 mps 765 mmHg 89%
    09:00 +17°C° 0 mm 4 mps 765 mmHg 82%
    10:00 +19°C° 0 mm 4 mps 765 mmHg 76%
    11:00 +20°C° 0.1 mm 4 mps 765 mmHg 74%
    12:00 +20°C° 0.1 mm 3 mps 764 mmHg 72%
    13:00 +21°C° 0.1 mm 3 mps 763 mmHg 71%
    14:00 +20°C° 0.1 mm 3 mps 763 mmHg 74%
    15:00 +20°C° 0.1 mm 3 mps 763 mmHg 77%
    16:00 +19°C° 0.1 mm 3 mps 763 mmHg 80%
    17:00 +18°C° 0 mm 3 mps 763 mmHg 84%
    18:00 +17°C° 0 mm 3 mps 764 mmHg 88%
    19:00 +16°C° 0 mm 2 mps 764 mmHg 92%
    20:00 +16°C° 0 mm 2 mps 764 mmHg 92%
    21:00 +15°C° 0 mm 2 mps 764 mmHg 92%
    22:00 +15°C° 0 mm 2 mps 765 mmHg 92%
    23:00 +15°C° 0 mm 2 mps 764 mmHg 93%

    28 June, Wednesday

    Time Temperature Precipitation Wind Pressure Humidity
    00:00 +15°C° 0 mm 2 mps 764 mmHg 93%
    01:00 +15°C° 0 mm 2 mps 763 mmHg 94%
    02:00 +14°C° 0.1 mm 2 mps 763 mmHg 94%
    03:00 +14°C° 0.1 mm 2 mps 763 mmHg 94%
    04:00 +14°C° 0.1 mm 2 mps 763 mmHg 94%
    05:00 +14°C° 0.1 mm 2 mps 763 mmHg 95%
    06:00 +14°C° 0.1 mm 2 mps 764 mmHg 95%
    07:00 +14°C° 0.1 mm 1 mps 764 mmHg 95%
    08:00 +17°C° 0.1 mm 2 mps 764 mmHg 90%
    09:00 +19°C° 0.1 mm 2 mps 764 mmHg 84%
    10:00 +21°C° 0.1 mm 2 mps 764 mmHg 79%
    11:00 +21°C° 0.2 mm 3 mps 764 mmHg 77%
    12:00 +22°C° 0.2 mm 4 mps 763 mmHg 76%
    13:00 +22°C° 0.2 mm 4 mps 762 mmHg 74%
    14:00 +22°C° 0.2 mm 4 mps 762 mmHg 77%
    15:00 +21°C° 0.2 mm 5 mps 762 mmHg 80%
    16:00 +21°C° 0.2 mm 5 mps 761 mmHg 83%
    17:00 +20°C° 0.1 mm 5 mps 762 mmHg 86%
    18:00 +19°C° 0.1 mm 5 mps 762 mmHg 89%
    19:00 +17°C° 0.1 mm 5 mps 762 mmHg 93%
    20:00 +17°C° 0.1 mm 5 mps 762 mmHg 93%
    21:00 +17°C° 0.1 mm 5 mps 762 mmHg 94%
    22:00 +17°C° 0.1 mm 5 mps 762 mmHg 94%
    23:00 +16°C° 0.2 mm 5 mps 762 mmHg 94%

    29 June, Thursday

    Time Temperature Precipitation Wind Pressure Humidity
    00:00 +16°C° 0.2 mm 5 mps 762 mmHg 94%
    01:00 +16°C° 0.2 mm 5 mps 761 mmHg 95%
    02:00 +16°C° 0.1 mm 6 mps 761 mmHg 95%
    03:00 +16°C° 0.1 mm 6 mps 761 mmHg 94%
    04:00 +16°C° 0.1 mm 6 mps 760 mmHg 94%
    05:00 +16°C° 0.1 mm 6 mps 760 mmHg 94%
    06:00 +16°C° 0.1 mm 6 mps 760 mmHg 94%
    07:00 +16°C° 0.1 mm 6 mps 760 mmHg 94%
    08:00 +18°C° 0 mm 7 mps 760 mmHg 89%
    09:00 +20°C° 0 mm 7 mps 760 mmHg 84%
    10:00 +21°C° 0 mm 8 mps 760 mmHg 79%
    11:00 +22°C° 0 mm 8 mps 758 mmHg 78%
    12:00 +22°C° 0 mm 9 mps 757 mmHg 77%
    13:00 +22°C° 0 mm 9 mps 756 mmHg 76%
    14:00 +22°C° 0.4 mm 9 mps 756 mmHg 79%
    15:00 +21°C° 0.4 mm 9 mps 756 mmHg 83%
    16:00 +21°C° 0.4 mm 9 mps 756 mmHg 86%
    17:00 +20°C° 1.9 mm 8 mps 756 mmHg 87%
    18:00 +18°C° 1.9 mm 8 mps 756 mmHg 89%
    19:00 +17°C° 1.9 mm 7 mps 757 mmHg 90%
    20:00 +16°C° 0.5 mm 7 mps 757 mmHg 90%
    21:00 +15°C° 0.5 mm 6 mps 757 mmHg 90%
    22:00 +14°C° 0.5 mm 6 mps 757 mmHg 90%
    23:00 +12°C° 0.1 mm 7 mps 757 mmHg 89%

    30 June, Friday

    Time Temperature Precipitation Wind Pressure Humidity
    00:00 +12°C° 0.1 mm 7 mps 757 mmHg 88%
    01:00 +11°C° 0.1 mm 8 mps 757 mmHg 86%
    02:00 +11°C° 0 mm 8 mps 758 mmHg 84%
    03:00 +11°C° 0 mm 8 mps 758 mmHg 82%
    04:00 +10°C° 0 mm 9 mps 758 mmHg 79%
    05:00 +10°C° 0 mm 8 mps 758 mmHg 78%
    06:00 +10°C° 0 mm 8 mps 759 mmHg 78%
    07:00 +10°C° 0 mm 7 mps 760 mmHg 77%
    08:00 +12°C° 0 mm 8 mps 760 mmHg 72%
    09:00 +13°C° 0 mm 8 mps 761 mmHg 67%
    10:00 +16°C° 0 mm 8 mps 761 mmHg 63%
    11:00 +17°C° 0 mm 8 mps 761 mmHg 60%
    12:00 +17°C° 0 mm 7 mps 761 mmHg 58%
    13:00 +18°C° 0 mm 7 mps 760 mmHg 56%
    14:00 +17°C° 0 mm 7 mps 761 mmHg 60%
    15:00 +17°C° 0 mm 7 mps 761 mmHg 64%
    16:00 +17°C° 0 mm 7 mps 761 mmHg 68%
    17:00 +15°C° 0 mm 7 mps 762 mmHg 71%
    18:00 +14°C° 0 mm 7 mps 763 mmHg 74%
    19:00 +11°C° 0 mm 7 mps 764 mmHg 78%
    20:00 +11°C° 0 mm 7 mps 764 mmHg 76%
    21:00 +10°C° 0 mm 8 mps 765 mmHg 75%
    22:00 +10°C° 0 mm 8 mps 765 mmHg 74%
    23:00 +9°C° 0 mm 7 mps 765 mmHg 74%
    Show more